Parsons, KS

11:33 PM CST on November 21, 2019 (GMT -0600)
Tri-City

Weather History for KPPF - July, 2019

Change the Weather History Date:

Monday, July 22, 2019

  Actual Average Record
Temperature  
Mean Temperature 76 °F -  
Max Temperature 84 °F 91 °F 109 °F (1954)
Min Temperature 66 °F 68 °F 53 °F (1970)
Cooling Degree Days 11    
Growing Degree Days 26 (Base 50)    
Moisture  
Dew Point 67 °F    
Average Humidity 80    
Maximum Humidity 100    
Minimum Humidity 49    
Precipitation  
Precipitation 0.05 in - - ()
Sea Level Pressure  
Sea Level Pressure 30.06 in    
Wind  
Wind Speed 7 mph (North)    
Max Wind Speed 15 mph    
Max Gust Speed 25 mph    
Visibility 9 miles    
Events Rain , Thunderstorm    
Averages and records for this station are not official NWS values.
T = Trace of Precipitation, MM = Missing Value Source: NWS Daily Summary

Daily Weather History Graph

Daily Weather History Graph

Search for Another Location

Airport or City:

Astronomy

Jul. 22, 2019 Rise Set
Actual Time 6:18 AM CDT 8:38 PM CDT
Civil Twilight 5:48 AM CDT 9:07 PM CDT
Nautical Twilight 5:12 AM CDT 9:44 PM CDT
Astronomical Twilight 4:31 AM CDT 10:24 PM CDT
Moon No Moon Rise 11:30 AM CDT
Length of Visible Light 15h 19m
Length of Day
14h 19m
Waning Gibbous, 72% of the Moon is Illuminated
Jul 22
Waning Gibbous
Jul 24
Last Quarter
Jul 31
New
Aug 7
First Quarter
Aug 15
Full

Hourly Weather History & Observations

Time (CDT) Temp. Heat Index Dew Point Humidity Pressure Visibility Wind Dir Wind Speed Gust Speed Precip Events Conditions
12:14 AM 71.1 °F - 71.1 °F 100% 30.00 in 10.0 mi North 4.6 mph - 0.00 in Thunderstorm Mostly Cloudy
12:33 AM 71.1 °F - 70.0 °F 96% 29.99 in 10.0 mi NNE 6.9 mph - 0.00 in   Mostly Cloudy
12:52 AM 71.1 °F - 71.1 °F 100% 29.97 in 10.0 mi NNW 3.5 mph - 0.00 in   Mostly Cloudy
1:14 AM 72.0 °F - 71.1 °F 97% 30.01 in 10.0 mi Calm Calm - N/A   Overcast
1:52 AM 73.0 °F - 72.0 °F 96% 29.98 in 10.0 mi NNE 5.8 mph - N/A   Overcast
2:52 AM 73.0 °F - 72.0 °F 96% 29.99 in 9.0 mi North 5.8 mph - N/A   Overcast
3:25 AM 73.0 °F - 72.0 °F 96% 30.02 in 5.0 mi North 6.9 mph - 0.01 in Rain Light Rain
3:52 AM 73.0 °F - 72.0 °F 96% 29.99 in 6.0 mi North 8.1 mph - 0.03 in Rain Light Rain
4:03 AM 73.0 °F - 72.0 °F 96% 30.02 in 10.0 mi North 5.8 mph - 0.00 in   Overcast
4:11 AM 73.0 °F - 72.0 °F 96% 30.02 in 8.0 mi North 9.2 mph 18.4 mph 0.00 in Rain Light Rain
4:18 AM 72.0 °F - 71.1 °F 97% 30.02 in 10.0 mi North 12.7 mph - 0.00 in Rain Light Rain
4:41 AM 71.1 °F - 70.0 °F 96% 30.02 in 5.0 mi North 9.2 mph - 0.01 in Rain Light Rain
4:52 AM 71.1 °F - 70.0 °F 96% 29.99 in 5.0 mi North 8.1 mph - 0.02 in Rain Light Rain
5:52 AM 71.1 °F - 70.0 °F 96% 30.01 in 10.0 mi North 8.1 mph - 0.00 in   Overcast
6:49 AM 71.1 °F - 71.1 °F 100% 30.02 in 10.0 mi North 9.2 mph - 0.00 in   Overcast
7:52 AM 72.0 °F - 70.0 °F 93% 30.04 in 10.0 mi NNE 9.2 mph 18.4 mph N/A   Overcast
8:09 AM 71.1 °F - 69.1 °F 93% 30.09 in 10.0 mi NNE 10.4 mph 24.2 mph N/A   Overcast
8:52 AM 72.0 °F - 68.0 °F 87% 30.07 in 10.0 mi NNE 11.5 mph 18.4 mph N/A   Overcast
9:30 AM 75.0 °F - 68.0 °F 79% 30.11 in 10.0 mi NNE 8.1 mph 19.6 mph N/A   Mostly Cloudy
9:52 AM 75.9 °F - 66.9 °F 74% 30.10 in 10.0 mi NNE 15.0 mph 25.3 mph N/A   Partly Cloudy
10:52 AM 79.0 °F - 64.9 °F 62% 30.11 in 10.0 mi NNE 10.4 mph 24.2 mph N/A   Clear
11:52 AM 80.1 °F 81.7 °F 64.0 °F 58% 30.12 in 10.0 mi NNE 12.7 mph 23.0 mph N/A   Clear
12:52 PM 82.0 °F 83.1 °F 63.0 °F 52% 30.12 in 10.0 mi NNE 10.4 mph 21.9 mph N/A   Clear
1:52 PM 82.9 °F 83.7 °F 62.1 °F 49% 30.12 in 10.0 mi North 15.0 mph 24.2 mph N/A   Clear
2:52 PM 84.0 °F 85.8 °F 64.9 °F 53% 30.11 in 10.0 mi NNE 10.4 mph 18.4 mph N/A   Partly Cloudy
3:52 PM 84.9 °F 86.6 °F 64.9 °F 51% 30.11 in 10.0 mi NNE 10.4 mph 19.6 mph N/A   Scattered Clouds
4:52 PM 82.9 °F 84.4 °F 64.0 °F 53% 30.09 in 10.0 mi NNE 9.2 mph 19.6 mph N/A   Mostly Cloudy
5:52 PM 82.9 °F 84.0 °F 63.0 °F 51% 30.09 in 10.0 mi North 10.4 mph 20.7 mph N/A   Partly Cloudy
6:52 PM 82.0 °F 83.0 °F 62.1 °F 51% 30.09 in 10.0 mi North 8.1 mph - N/A   Scattered Clouds
7:52 PM 78.1 °F - 61.0 °F 56% 30.11 in 10.0 mi NNE 6.9 mph - N/A   Clear
8:52 PM 73.0 °F - 62.1 °F 68% 30.13 in 10.0 mi NNE 3.5 mph - N/A   Clear
9:52 PM 70.0 °F - 61.0 °F 73% 30.14 in 10.0 mi North 5.8 mph - N/A   Clear
10:52 PM 68.0 °F - 60.1 °F 76% 30.16 in 10.0 mi North 4.6 mph - N/A   Clear
11:52 PM 66.9 °F - 59.0 °F 76% 30.18 in 10.0 mi North 5.8 mph - N/A   Clear